HISAKI (SPRINT-A)

Last updated on Thu Nov 21 2024 00:03:26 GMT+0000 (Coordinated Universal Time)

1 39253U 13049A 24325.31385694 .00000202 00000+0 18857-3 0 9999 2 39253 29.7196 257.4178 0136722 44.7270 316.4237 13.55447425553501
UTC large
Height (km)
Speed (km/s)
/
Latitude / Longitude
Inclination (degrees)
Orbital Period (minutes)
Azimuth
Elevation
Range (km)
Doppler Factor

Next 0 passes for location: London (51.5072 / 0.1276)

Sorry there are no passes over London.